Flag for Austria Weather past 2 weeks in Klagenfurt, Carinthia, Austria

Now
32 °F

Broken clouds.


Feels Like: 32 °F
Forecast: 14 / 35 °F
Wind: 2 mph from North

Location: Klagenfurt-Flughafen

Current Time: Jan 30, 2015 at 5:35:08 PM

Latest Report: Jan 30, 2015 at 4:50 PM


Visibility: N/A

Pressure: 28.85 "Hg

Humidity: 93%

Dew point: 30 °F

Location of KlagenfurtLocation

Historic Weather in Klagenfurt — Graph

°F

Klagenfurt temperature yesterday

Maximum temperature yesterday: 39 °F (at 1:50 PM)
Minimum temperature yesterday: 25 °F (at 12:20 AM)
Average temperature yesterday: 31 °F

Past Weeks' High & Low Weather Summary

 TemperatureHumidityPressure
High52 °F (Jan 16, 1:50 PM)100% (Jan 15, 7:50 PM)30.24 "Hg (Jan 15, 7:50 PM)
Low21 °F (Jan 28, 4:20 AM)34% (Jan 25, 3:50 PM)28.82 "Hg (Jan 30, 8:20 AM)
Average34 °F84%29.88 "Hg
* Reported Jan 15 4:20 PM — Jan 30 4:20 PM, Klagenfurt, Weather by CustomWeather, © 2014

Note: Actual official high and low records may vary slightly from our data, if they occured in-between our weather recording intervals... More about our weather records

Advertising

Klagenfurt weather history for previous 24 hours

 ConditionsComfort  
Time TempWeatherWind HumidityBarometerVisibility
4:20 PM
Jan 30
32 °FBroken clouds.2 mph93%28.85 "HgN/A
3:50 PM34 °FBroken clouds.3 mph93%28.82 "HgN/A
3:20 PM34 °FLight snow. Partly sunny.2 mph93%28.82 "HgN/A
2:50 PM32 °FLight snow. Ice fog.5 mph100%28.85 "Hg2 mi
2:20 PM32 °FLight snow. Partly sunny.6 mph100%28.85 "Hg5 mi
1:50 PM34 °FLight snow. Partly sunny.3 mph93%28.82 "HgN/A
1:20 PM32 °FLight snow. Ice fog.2 mph100%28.82 "Hg2 mi
12:50 PM32 °FSnow. More clouds than sun.5 mph100%28.82 "Hg1 mi
12:20 PM32 °FSnow. Dense fog.5 mph100%28.82 "Hg1 mi
11:50 AM32 °FHeavy snow. Dense fog.3 mph93%28.85 "Hg0 mi
11:20 AM32 °FSnow. Dense fog.3 mph93%28.85 "Hg1 mi
10:50 AM30 °FHeavy snow. Ice fog.1 mph100%28.82 "Hg1 mi
10:20 AM30 °FMixture of precip. Low clouds.3 mph100%28.82 "Hg1 mi
9:50 AM30 °FMixture of precip. Low clouds.5 mph100%28.82 "Hg1 mi
9:20 AM30 °FSnow. Low clouds.3 mph93%28.82 "Hg1 mi
8:50 AM30 °FSnow. Low clouds.5 mph93%28.82 "Hg1 mi
8:20 AM30 °FHeavy snow. Ice fog.1 mph93%28.82 "Hg1 mi
7:50 AM30 °FSnow. More clouds than sun.5 mph93%28.85 "Hg1 mi
7:20 AM30 °FSnow. Overcast.3 mph93%28.85 "Hg2 mi
6:50 AM30 °FLight mixture of precip. Overcast.2 mph93%28.88 "Hg2 mi
6:20 AM30 °FMixture of precip. Mostly cloudy.1 mph93%28.88 "Hg2 mi
5:50 AM30 °FLight snow. Partly cloudy.1 mph93%28.91 "Hg4 mi
5:20 AM30 °FLight snow. Passing clouds.2 mph86%28.91 "Hg5 mi
4:50 AM30 °FLight snow. Passing clouds.2 mph86%28.94 "Hg5 mi
4:20 AM30 °FPassing clouds.1 mph86%28.94 "HgN/A
3:50 AM30 °FLight snow. Passing clouds.3 mph86%28.97 "HgN/A
3:20 AM30 °FLight freezing rain. Passing clouds.1 mph93%29.00 "HgN/A
2:50 AM30 °FLight snow. Passing clouds.2 mph93%29.03 "HgN/A
2:20 AM30 °FLight snow. Passing clouds.2 mph86%29.03 "Hg6 mi
1:50 AM30 °FSnow. Passing clouds.2 mph86%29.06 "Hg3 mi
1:20 AM30 °FLight freezing rain. Passing clouds.1 mph86%29.09 "HgN/A
12:50 AM32 °FLight snow. Passing clouds.3 mph75%29.12 "HgN/A
12:20 AM32 °FPartly cloudy.2 mph75%29.12 "HgN/A
11:50 PM
Jan 29
32 °FOvercast.2 mph75%29.15 "HgN/A
11:20 PM30 °FPartly cloudy.3 mph80%29.15 "HgN/A
10:50 PM30 °FPartly cloudy.2 mph80%29.18 "HgN/A
10:20 PM30 °FPassing clouds.1 mph80%29.21 "HgN/A
9:50 PM32 °FPassing clouds.1 mph75%29.24 "HgN/A
9:20 PM32 °FPartly cloudy.1 mph75%29.24 "HgN/A
8:50 PM32 °FPartly cloudy.1 mph75%29.27 "HgN/A
8:20 PM32 °FPassing clouds.1 mph75%29.30 "HgN/A
7:50 PM32 °FPassing clouds.2 mph75%29.30 "HgN/A
7:20 PM34 °FPassing clouds.1 mph70%29.33 "HgN/A
6:50 PM34 °FPassing clouds.2 mph70%29.33 "HgN/A
6:20 PM34 °FPassing clouds.2 mph70%29.36 "HgN/A
5:50 PM34 °FPassing clouds.1 mph70%29.39 "HgN/A
5:20 PM36 °FPassing clouds.1 mph65%29.39 "HgN/A
Weather by CustomWeather, © 2014

See weather overviewHow to use our weather pages